GFSFLT1_prec_precacc_162.txt.gz
Total_Precipitation_Accumulation
0.00 0.00 0.02 0.03 0.03 0.26 0.64 0.84 1.09 1.18 1.10 0.96 0.77 0.73 0.66 0.67 0.60 0.64 0.73 0.76 0.72 0.84 0.76 0.75 1.02 1.33 1.02 0.93 0.79 0.80 0.71 0.64
0.00 0.01 0.02 0.04 0.10 0.40 0.69 0.82 1.10 1.07 0.60 0.50 0.53 0.52 0.40 0.55 0.57 0.64 0.81 1.02 1.01 0.91 0.83 0.81 0.94 0.97 0.94 1.15 1.38 1.56 1.32 0.89
0.01 0.03 0.06 0.12 0.24 0.52 0.61 0.48 0.33 0.16 0.11 0.21 0.36 0.47 0.48 0.46 0.54 0.71 0.67 0.99 1.00 0.85 0.86 0.85 0.99 1.09 0.99 0.79 0.87 0.97 0.97 0.88
0.02 0.06 0.13 0.17 0.15 0.15 0.09 0.06 0.05 0.09 0.12 0.31 0.53 0.86 0.80 0.67 0.54 0.57 0.73 0.91 1.08 0.98 0.88 0.78 0.79 1.17 1.42 1.19 1.07 1.02 0.87 0.84
0.03 0.02 0.01 0.00 0.01 0.09 0.07 0.07 0.08 0.12 0.14 0.24 0.41 0.41 0.31 0.23 0.23 0.28 0.41 0.75 1.13 0.93 1.17 1.24 1.16 0.93 1.08 1.44 1.39 1.18 1.20 1.17
0.00 0.00 0.00 0.01 0.02 0.07 0.09 0.11 0.11 0.09 0.12 0.19 0.48 0.55 0.52 0.50 0.61 0.77 0.89 1.05 1.37 1.33 1.13 1.56 1.67 1.59 1.25 1.52 1.85 2.00 1.81 1.76
0.01 0.02 0.01 0.01 0.04 0.06 0.05 0.13 0.10 0.16 0.21 0.25 0.36 0.49 0.54 0.55 0.56 0.64 0.80 1.03 1.37 1.55 1.76 1.79 2.24 2.23 2.02 1.72 1.68 2.05 2.41 2.30
0.06 0.04 0.02 0.01 0.02 0.06 0.14 0.18 0.19 0.21 0.37 0.46 0.47 0.54 0.68 0.45 0.33 0.41 0.50 0.71 0.69 0.81 0.99 1.22 1.46 1.87 1.70 1.73 1.68 1.49 1.48 1.47
0.12 0.10 0.08 0.10 0.10 0.06 0.12 0.15 0.27 0.28 0.41 0.56 0.70 0.64 0.76 0.64 0.48 0.58 0.50 0.49 0.53 0.71 0.91 1.13 1.27 1.70 1.91 1.55 1.42 1.65 1.70 1.56
0.30 0.26 0.23 0.25 0.23 0.18 0.22 0.25 0.34 0.39 0.42 0.54 0.84 1.03 0.94 0.87 0.82 1.22 1.23 0.80 0.66 0.76 1.23 1.61 1.81 2.21 2.15 2.40 2.04 1.54 1.89 1.81
0.42 0.52 0.51 0.36 0.39 0.33 0.30 0.31 0.34 0.37 0.43 0.54 0.75 0.99 1.16 1.04 1.07 1.23 1.55 1.58 1.26 1.23 1.40 1.63 2.03 1.92 2.09 2.05 2.17 1.54 1.14 1.30
0.61 0.97 0.95 0.68 0.61 0.52 0.46 0.45 0.47 0.49 0.56 0.54 0.66 1.01 0.99 1.50 1.93 1.89 2.02 2.29 2.20 1.87 1.54 1.67 1.74 1.95 2.13 1.76 1.54 1.46 1.34 1.15
0.60 0.56 0.78 1.15 1.07 0.71 0.54 0.49 0.69 1.15 1.41 1.47 1.29 1.66 1.90 1.99 2.34 2.24 1.78 2.47 2.53 2.32 2.32 1.93 2.17 1.90 1.63 1.56 1.39 1.21 1.32 1.28
1.12 1.01 0.79 0.63 0.94 1.05 0.78 0.82 1.47 1.96 1.95 2.01 1.70 2.01 2.25 2.61 2.49 2.34 2.20 2.02 2.44 2.34 2.37 2.28 1.71 1.95 1.45 1.16 1.13 1.27 1.11 1.38
1.12 1.15 1.31 1.27 0.83 0.99 1.02 1.02 1.60 1.84 1.31 1.27 1.55 1.69 1.48 1.56 1.50 1.72 1.91 1.95 1.82 1.70 1.80 1.79 1.57 1.22 1.40 1.25 1.08 0.91 1.01 0.88
0.94 1.45 1.09 0.94 1.06 1.02 0.93 1.03 1.05 1.34 1.23 1.04 1.00 1.08 1.25 0.96 0.87 1.04 1.47 1.45 1.47 1.66 1.71 1.71 1.79 1.45 1.18 1.23 1.21 0.96 0.94 0.95
0.62 0.87 1.33 0.74 0.59 0.69 0.73 0.92 1.09 0.96 0.95 0.88 0.81 0.72 0.76 0.78 0.81 0.71 0.78 0.96 1.03 1.09 1.29 1.68 1.92 2.02 1.78 1.27 1.06 1.09 1.07 0.97
0.42 0.40 0.99 0.99 0.74 0.70 0.62 0.82 0.96 0.84 0.84 0.80 0.61 0.50 0.47 0.39 0.32 0.34 0.38 0.54 0.72 0.92 1.03 1.04 1.16 1.49 1.90 1.62 1.41 1.11 1.05 1.09
0.34 0.35 0.61 0.89 0.64 0.54 0.54 0.63 0.85 0.78 0.69 0.68 0.63 0.46 0.36 0.38 0.30 0.32 0.38 0.46 0.47 0.39 0.38 0.40 0.47 0.64 0.97 1.09 1.30 1.24 1.26 1.20

GFSFLT1_prec_precacc_168.txt.gz
Total_Precipitation_Accumulation
0.00 0.00 0.02 0.03 0.03 0.26 0.64 0.84 1.09 1.18 1.10 0.96 0.77 0.73 0.66 0.67 0.60 0.64 0.73 0.76 0.72 0.84 0.76 0.75 1.02 1.33 1.02 0.93 0.79 0.80 0.71 0.64
0.00 0.01 0.02 0.04 0.10 0.40 0.69 0.82 1.10 1.07 0.60 0.50 0.53 0.52 0.40 0.55 0.57 0.64 0.81 1.02 1.01 0.91 0.83 0.81 0.94 0.97 0.94 1.15 1.38 1.56 1.32 0.89
0.01 0.03 0.06 0.12 0.24 0.52 0.61 0.48 0.33 0.16 0.11 0.21 0.36 0.47 0.48 0.46 0.54 0.71 0.67 0.99 1.00 0.85 0.86 0.85 0.99 1.09 0.99 0.79 0.87 0.97 0.97 0.88
0.02 0.06 0.13 0.17 0.15 0.15 0.09 0.06 0.05 0.09 0.12 0.31 0.53 0.86 0.80 0.67 0.54 0.57 0.73 0.91 1.08 0.98 0.88 0.78 0.79 1.17 1.42 1.19 1.07 1.02 0.87 0.84
0.03 0.02 0.01 0.00 0.01 0.09 0.07 0.07 0.08 0.12 0.14 0.24 0.41 0.41 0.31 0.23 0.23 0.28 0.41 0.75 1.13 0.93 1.17 1.24 1.16 0.93 1.08 1.44 1.39 1.18 1.20 1.17
0.00 0.00 0.00 0.01 0.02 0.07 0.09 0.11 0.11 0.09 0.12 0.19 0.48 0.55 0.52 0.50 0.61 0.77 0.89 1.05 1.37 1.33 1.13 1.56 1.67 1.59 1.25 1.52 1.85 2.00 1.81 1.77
0.01 0.02 0.01 0.01 0.04 0.06 0.05 0.13 0.10 0.16 0.21 0.25 0.36 0.49 0.54 0.55 0.56 0.64 0.80 1.03 1.37 1.55 1.76 1.79 2.24 2.23 2.02 1.72 1.68 2.05 2.41 2.30
0.06 0.04 0.02 0.01 0.02 0.06 0.14 0.18 0.19 0.21 0.37 0.46 0.47 0.54 0.68 0.45 0.33 0.41 0.50 0.71 0.69 0.81 0.99 1.22 1.46 1.87 1.70 1.73 1.68 1.49 1.48 1.47
0.12 0.10 0.08 0.10 0.10 0.06 0.12 0.15 0.27 0.28 0.41 0.56 0.70 0.64 0.76 0.64 0.48 0.58 0.50 0.49 0.53 0.71 0.91 1.13 1.27 1.70 1.91 1.55 1.42 1.65 1.70 1.56
0.30 0.26 0.23 0.25 0.23 0.18 0.22 0.25 0.34 0.39 0.42 0.54 0.84 1.03 0.94 0.87 0.82 1.22 1.23 0.80 0.66 0.76 1.23 1.61 1.81 2.21 2.15 2.40 2.05 1.54 1.89 1.81
0.42 0.52 0.51 0.36 0.39 0.33 0.30 0.31 0.34 0.37 0.43 0.54 0.75 0.99 1.16 1.04 1.07 1.23 1.55 1.58 1.26 1.23 1.40 1.63 2.03 1.92 2.09 2.05 2.17 1.54 1.14 1.30
0.61 0.97 0.95 0.68 0.61 0.52 0.46 0.45 0.47 0.49 0.56 0.54 0.66 1.01 0.99 1.50 1.93 1.89 2.02 2.29 2.20 1.87 1.54 1.67 1.74 1.95 2.13 1.76 1.54 1.46 1.34 1.15
0.60 0.56 0.78 1.15 1.07 0.71 0.54 0.49 0.69 1.15 1.41 1.47 1.29 1.66 1.90 1.99 2.34 2.24 1.78 2.47 2.53 2.32 2.32 1.93 2.17 1.90 1.63 1.56 1.39 1.22 1.32 1.28
1.12 1.01 0.79 0.63 0.94 1.05 0.78 0.82 1.47 1.96 1.95 2.01 1.70 2.01 2.25 2.61 2.49 2.34 2.20 2.02 2.44 2.34 2.37 2.28 1.71 1.95 1.45 1.16 1.13 1.27 1.11 1.38
1.12 1.15 1.31 1.27 0.83 0.99 1.02 1.02 1.60 1.84 1.31 1.27 1.55 1.69 1.48 1.56 1.50 1.72 1.91 1.95 1.82 1.70 1.80 1.79 1.57 1.22 1.40 1.25 1.08 0.91 1.01 0.88
0.94 1.46 1.11 0.97 1.08 1.02 0.93 1.03 1.05 1.34 1.23 1.04 1.00 1.08 1.25 0.96 0.87 1.04 1.47 1.45 1.47 1.66 1.71 1.71 1.79 1.45 1.18 1.23 1.21 0.96 0.94 0.95
0.66 0.96 1.44 0.83 0.64 0.71 0.73 0.92 1.09 0.96 0.95 0.88 0.81 0.72 0.76 0.78 0.81 0.71 0.78 0.96 1.03 1.09 1.29 1.68 1.92 2.02 1.78 1.27 1.06 1.09 1.07 0.97
0.45 0.45 1.05 1.05 0.77 0.70 0.62 0.82 0.96 0.84 0.84 0.80 0.61 0.50 0.47 0.39 0.32 0.34 0.38 0.54 0.72 0.92 1.03 1.04 1.16 1.49 1.90 1.62 1.41 1.11 1.05 1.09
0.34 0.36 0.62 0.90 0.64 0.54 0.54 0.63 0.85 0.78 0.69 0.68 0.63 0.46 0.36 0.38 0.30 0.32 0.38 0.46 0.47 0.39 0.38 0.40 0.47 0.64 0.97 1.09 1.30 1.24 1.26 1.20

GFSFLT1_prec_precacc_171.txt.gz
Total_Precipitation_Accumulation
0.00 0.00 0.02 0.03 0.03 0.26 0.64 0.84 1.09 1.18 1.10 0.96 0.77 0.73 0.66 0.67 0.60 0.64 0.73 0.76 0.72 0.84 0.76 0.75 1.02 1.33 1.02 0.93 0.79 0.80 0.71 0.64
0.00 0.01 0.02 0.04 0.10 0.40 0.69 0.82 1.10 1.07 0.60 0.50 0.53 0.52 0.40 0.55 0.57 0.64 0.81 1.02 1.01 0.91 0.83 0.81 0.94 0.97 0.94 1.15 1.38 1.56 1.32 0.89
0.01 0.03 0.06 0.12 0.24 0.52 0.61 0.48 0.33 0.16 0.11 0.21 0.36 0.47 0.48 0.46 0.54 0.71 0.67 0.99 1.00 0.85 0.86 0.85 0.99 1.09 0.99 0.79 0.87 0.97 0.97 0.88
0.02 0.06 0.13 0.17 0.15 0.15 0.09 0.06 0.05 0.09 0.12 0.31 0.53 0.86 0.80 0.67 0.54 0.57 0.73 0.91 1.08 0.98 0.88 0.78 0.79 1.17 1.42 1.19 1.07 1.02 0.87 0.84
0.03 0.02 0.01 0.00 0.01 0.09 0.07 0.07 0.08 0.12 0.14 0.24 0.41 0.41 0.31 0.23 0.23 0.28 0.41 0.75 1.13 0.93 1.17 1.24 1.16 0.93 1.08 1.44 1.39 1.18 1.20 1.17
0.00 0.00 0.00 0.01 0.02 0.07 0.09 0.11 0.11 0.09 0.12 0.19 0.48 0.55 0.52 0.50 0.61 0.77 0.89 1.05 1.37 1.33 1.13 1.56 1.67 1.59 1.25 1.52 1.85 2.00 1.81 1.77
0.01 0.02 0.01 0.01 0.04 0.06 0.05 0.13 0.10 0.16 0.21 0.25 0.36 0.49 0.54 0.55 0.56 0.64 0.80 1.03 1.37 1.55 1.76 1.79 2.24 2.23 2.02 1.72 1.68 2.05 2.41 2.30
0.06 0.04 0.02 0.01 0.02 0.06 0.14 0.18 0.19 0.21 0.37 0.46 0.47 0.54 0.68 0.45 0.33 0.41 0.50 0.71 0.69 0.81 0.99 1.22 1.46 1.87 1.70 1.73 1.68 1.49 1.48 1.47
0.12 0.10 0.08 0.10 0.10 0.06 0.12 0.15 0.27 0.28 0.41 0.56 0.70 0.64 0.76 0.64 0.48 0.58 0.50 0.49 0.53 0.71 0.91 1.13 1.27 1.70 1.91 1.55 1.42 1.65 1.70 1.56
0.30 0.26 0.23 0.25 0.23 0.18 0.22 0.25 0.34 0.39 0.42 0.54 0.84 1.03 0.94 0.87 0.82 1.22 1.23 0.80 0.66 0.76 1.23 1.61 1.81 2.21 2.15 2.40 2.05 1.54 1.89 1.81
0.42 0.52 0.51 0.36 0.39 0.33 0.30 0.31 0.34 0.37 0.43 0.54 0.75 0.99 1.16 1.04 1.07 1.23 1.55 1.58 1.26 1.23 1.40 1.63 2.03 1.92 2.09 2.05 2.17 1.54 1.14 1.30
0.61 0.97 0.95 0.68 0.61 0.52 0.46 0.45 0.47 0.49 0.56 0.54 0.66 1.01 0.99 1.50 1.93 1.89 2.02 2.29 2.20 1.87 1.54 1.67 1.74 1.95 2.13 1.76 1.54 1.46 1.34 1.15
0.60 0.56 0.78 1.15 1.07 0.71 0.54 0.49 0.69 1.15 1.41 1.47 1.29 1.66 1.90 1.99 2.34 2.24 1.78 2.47 2.53 2.32 2.32 1.93 2.17 1.90 1.63 1.56 1.39 1.22 1.32 1.28
1.12 1.01 0.79 0.63 0.94 1.05 0.78 0.82 1.47 1.96 1.95 2.01 1.70 2.01 2.25 2.61 2.49 2.34 2.20 2.02 2.44 2.34 2.37 2.28 1.71 1.95 1.45 1.16 1.13 1.27 1.11 1.38
1.12 1.15 1.31 1.27 0.83 0.99 1.02 1.02 1.60 1.84 1.31 1.27 1.55 1.69 1.48 1.56 1.50 1.72 1.91 1.95 1.82 1.70 1.80 1.79 1.57 1.22 1.40 1.25 1.08 0.91 1.01 0.88
0.94 1.46 1.11 0.97 1.08 1.02 0.93 1.03 1.05 1.34 1.23 1.04 1.00 1.08 1.25 0.96 0.87 1.04 1.47 1.45 1.47 1.66 1.71 1.71 1.79 1.45 1.18 1.23 1.21 0.96 0.94 0.95
0.66 0.96 1.44 0.83 0.64 0.71 0.73 0.92 1.09 0.96 0.95 0.88 0.81 0.72 0.76 0.78 0.81 0.71 0.78 0.96 1.03 1.09 1.29 1.68 1.92 2.02 1.78 1.27 1.06 1.09 1.07 0.97
0.45 0.45 1.05 1.05 0.77 0.71 0.62 0.82 0.96 0.84 0.84 0.80 0.61 0.50 0.47 0.39 0.32 0.34 0.38 0.54 0.72 0.92 1.03 1.04 1.16 1.49 1.90 1.62 1.41 1.11 1.05 1.09
0.34 0.36 0.62 0.90 0.64 0.54 0.54 0.63 0.85 0.78 0.69 0.68 0.63 0.46 0.36 0.38 0.30 0.32 0.38 0.46 0.47 0.39 0.38 0.40 0.47 0.64 0.97 1.09 1.30 1.24 1.26 1.20

GFSFLT1_prec_precacc_174.txt.gz
Total_Precipitation_Accumulation
0.00 0.00 0.02 0.03 0.03 0.26 0.64 0.84 1.09 1.18 1.10 0.96 0.77 0.73 0.66 0.67 0.60 0.64 0.73 0.76 0.72 0.84 0.76 0.75 1.02 1.33 1.02 0.93 0.79 0.80 0.71 0.64
0.00 0.01 0.02 0.04 0.10 0.40 0.69 0.82 1.10 1.07 0.60 0.50 0.53 0.52 0.40 0.55 0.57 0.64 0.81 1.02 1.01 0.91 0.83 0.81 0.94 0.97 0.94 1.15 1.38 1.56 1.32 0.89
0.01 0.03 0.06 0.12 0.24 0.52 0.61 0.48 0.33 0.16 0.11 0.21 0.36 0.47 0.48 0.46 0.54 0.71 0.67 0.99 1.00 0.85 0.86 0.85 0.99 1.09 0.99 0.79 0.87 0.97 0.97 0.88
0.02 0.06 0.13 0.17 0.15 0.15 0.09 0.06 0.05 0.09 0.12 0.31 0.53 0.86 0.80 0.67 0.54 0.57 0.73 0.91 1.08 0.98 0.88 0.78 0.79 1.17 1.42 1.19 1.07 1.02 0.87 0.84
0.03 0.02 0.01 0.00 0.01 0.09 0.07 0.07 0.08 0.12 0.14 0.24 0.41 0.41 0.31 0.23 0.23 0.28 0.41 0.75 1.13 0.93 1.17 1.24 1.16 0.93 1.08 1.44 1.39 1.18 1.20 1.17
0.00 0.00 0.00 0.01 0.02 0.07 0.09 0.11 0.11 0.09 0.12 0.19 0.48 0.55 0.52 0.50 0.61 0.77 0.89 1.05 1.37 1.33 1.13 1.56 1.67 1.59 1.25 1.52 1.85 2.00 1.81 1.77
0.01 0.02 0.01 0.01 0.04 0.06 0.05 0.13 0.10 0.16 0.21 0.25 0.36 0.49 0.54 0.55 0.56 0.64 0.80 1.03 1.37 1.55 1.76 1.79 2.24 2.23 2.02 1.72 1.68 2.05 2.41 2.30
0.06 0.04 0.02 0.01 0.02 0.06 0.14 0.18 0.19 0.21 0.37 0.46 0.47 0.54 0.68 0.45 0.33 0.41 0.50 0.71 0.69 0.81 0.99 1.22 1.46 1.87 1.70 1.73 1.68 1.49 1.48 1.47
0.12 0.10 0.08 0.10 0.10 0.06 0.12 0.15 0.27 0.28 0.41 0.56 0.70 0.64 0.76 0.64 0.48 0.58 0.50 0.49 0.53 0.71 0.91 1.13 1.27 1.70 1.91 1.55 1.42 1.65 1.70 1.56
0.30 0.26 0.23 0.25 0.23 0.18 0.22 0.25 0.34 0.39 0.42 0.54 0.84 1.03 0.94 0.87 0.82 1.22 1.23 0.80 0.66 0.76 1.23 1.61 1.81 2.21 2.15 2.40 2.05 1.54 1.89 1.81
0.42 0.52 0.51 0.36 0.39 0.33 0.30 0.31 0.34 0.37 0.43 0.54 0.75 0.99 1.16 1.04 1.07 1.23 1.55 1.58 1.26 1.23 1.40 1.63 2.03 1.92 2.09 2.05 2.17 1.54 1.14 1.30
0.61 0.97 0.95 0.68 0.61 0.52 0.46 0.45 0.47 0.49 0.56 0.54 0.66 1.01 0.99 1.50 1.93 1.89 2.02 2.29 2.20 1.87 1.54 1.67 1.74 1.95 2.13 1.76 1.54 1.46 1.34 1.15
0.60 0.56 0.78 1.15 1.07 0.71 0.54 0.49 0.69 1.15 1.41 1.47 1.29 1.66 1.90 1.99 2.34 2.24 1.78 2.47 2.53 2.32 2.32 1.93 2.17 1.90 1.63 1.56 1.39 1.22 1.32 1.28
1.12 1.01 0.79 0.63 0.94 1.05 0.78 0.82 1.47 1.96 1.95 2.01 1.70 2.01 2.25 2.61 2.49 2.34 2.20 2.02 2.44 2.34 2.37 2.28 1.71 1.95 1.45 1.16 1.13 1.27 1.11 1.38
1.12 1.15 1.31 1.27 0.83 0.99 1.02 1.02 1.60 1.85 1.31 1.27 1.55 1.69 1.48 1.56 1.50 1.72 1.91 1.95 1.82 1.70 1.80 1.79 1.57 1.22 1.40 1.25 1.08 0.91 1.01 0.88
0.94 1.46 1.11 0.97 1.08 1.02 0.93 1.04 1.06 1.34 1.23 1.04 1.00 1.08 1.25 0.96 0.87 1.04 1.47 1.45 1.47 1.66 1.71 1.71 1.79 1.45 1.18 1.23 1.21 0.96 0.94 0.95
0.66 0.96 1.44 0.83 0.64 0.71 0.73 0.92 1.09 0.96 0.95 0.88 0.81 0.72 0.76 0.78 0.81 0.71 0.78 0.96 1.03 1.09 1.29 1.68 1.92 2.02 1.78 1.27 1.06 1.09 1.07 0.97
0.45 0.45 1.05 1.05 0.77 0.71 0.62 0.82 0.96 0.84 0.84 0.80 0.61 0.50 0.47 0.39 0.32 0.34 0.38 0.54 0.72 0.92 1.03 1.04 1.16 1.49 1.90 1.62 1.41 1.11 1.05 1.09
0.34 0.36 0.62 0.90 0.64 0.54 0.54 0.63 0.85 0.78 0.69 0.68 0.63 0.46 0.36 0.38 0.30 0.32 0.38 0.46 0.47 0.39 0.38 0.40 0.47 0.64 0.97 1.09 1.30 1.24 1.26 1.20